Location: Wiler
(46.4041°N, 7.7840°E)
Time: 06:34:11
(UTC+00:00)

IGS 5A - Pass Details

Date: 09 April 2020
Orbit: 585 x 587 km, 97.6° (Epoch: 19 May)

Event Time Altitude Azimuth Distance (km) Brightness Sun altitude
Exits shadow 20:20:36 51° 76° (ENE) 739 3.6 -21.2°
Maximum altitude 20:20:40 52° 72° (ENE) 739 3.7 -21.2°
Drops below altitude 10° 20:24:42 10° 357° (N) 1,920 6.6 -21.7°
Sets 20:26:55 0° 352° (N) 2,825 7.7 -22.0°
